{"data":{"norad_id":62222,"intl_designator":"2024-231E","name":"STARLINK-11488 [DTC]","alt_names":[],"object_type":"PAYLOAD","status":"ACTIVE","operator":null,"country":"US","launch_date":"2024-12-05","launch_site_code":"AFWTR","launch_vehicle":null,"mission":null,"orbit_class":"UNKNOWN","rcs_meters":null,"size_class":null,"mass_kg":null,"dimensions":null,"purposes":["comms"],"wikipedia_slug":null,"has_3d_model":false,"image_url":null,"decayed_at":null,"tle_current":{"epoch":"2026-09-21T04:17:45.000384Z","epoch_age_seconds":119023,"freshness":"FRESH","line1":"1 62222U 24231E   26264.17899306  .00155814  00000+0  12660-2 0  9999","line2":"2 62222  53.1573 217.6966 0001174  53.8149 306.2977 15.69728663104114","mean_motion":15.69728663,"eccentricity":0.0001174,"inclination_deg":53.1573,"raan_deg":217.6966,"arg_perigee_deg":53.8149,"mean_anomaly_deg":306.2977,"bstar":0.001266,"rev_number":10411,"period_min":91.735599530172,"perigee_km":358.88232565228,"apogee_km":360.46436352119,"semimajor_km":6737.8103445867,"source":"CELESTRAK","updated_at":"2026-09-22T09:00:49.544892Z"}}}